Weather in 2-e Mokhovoye

Russia / Tver Oblast     56°34′37″N   36°40′29″E
temp.,
°C
wind,
m/s
gust,
m/s
humid.,
%
clouds,
%
prec.,
mm/h
press.,
hPa
HPBL,
m
17 april, sat
sat1700:00+9ene51386100 0.0 1022609
03:00+8ene51289100 0.1 1023501
06:00+6ene5118799 0.0 1023437
09:00+9ene51075100 0.0 1023583
12:00+13ene686092 0.1 1023966
15:00+15ene695179 0.1 10221224
18:00+14ene5105636 0.0 10221109
21:00+10ene5135966 0.0 1023691
18 april, sun
sun1800:00+7ene5126317 0.0 1023575
03:00+6ene5137169 0.0 1023527
06:00+4ene5147635 0.0 1023566
09:00+8ene6115717 0.0 1023825
12:00+12ene694114 0.0 10221493
15:00+13e693877 0.0 10222005
18:00+12e4947100 0.0 10221853
21:00+7sse1382100 0.0 1025133
19 april, mon
mon1900:00+7ne2684100 0.0 1025413
03:00+6ene41083100 0.1 1026613
06:00+5ene4984100 0.0 1026512
09:00+5ene4978100 0.3 1027568
12:00+5ene497499 0.1 1027769
15:00+9e5862100 0.1 10261409
18:00+8e5959100 0.0 10261369
21:00+7e4964100 0.0 10261147
20 april, tue
tue2000:00+5e41058100 0.0 1026776
03:00+4e41057100 0.0 1025648
06:00+2e4116581 0.0 1024632
09:00+4e51063100 0.0 1023670
12:00+3ene61386100 0.4 1021735
15:00+4ene51487100 3.9 1018958
18:00+7e71781100 0.8 10141276
21:00+6e81987100 3.1 10101313
21 april, wed
wed2100:00+5e81992100 3.5 10061426
03:00+6ese71789100 5.4 10031195
06:00+7ese71592100 0.2 1000992
09:00+8ese61391100 2.0 9981263
12:00+6sse61191100 2.6 9971045
15:00+5sse51195100 2.8 999649
18:00+6ssw61192100 0.1 1002899
21:00+3ssw61296100 0.5 1006930